TimeCST,TemperatureF,Dew PointF,Humidity,Sea Level PressureIn,VisibilityMPH,Wind Direction,Wind SpeedMPH,Gust SpeedMPH,PrecipitationIn,Events,Conditions,WindDirDegrees,DateUTC
12:00 AM,68,58,63,29.83,12,East,8.1,,,,,90,2012-12-24 06:00:00
12:00 AM,68.0,59.0,73,29.98,-9999.0,East,8.1,19.6,N/A,,Clear,90,2012-12-24 06:00:00
1:00 AM,68.0,59.0,73,29.95,-9999.0,East,15.0,-,N/A,,Clear,90,2012-12-24 07:00:00
2:00 AM,68.0,59.0,73,29.93,-9999.0,East,15.0,26.5,N/A,,Clear,90,2012-12-24 08:00:00
3:00 AM,68,57,59,29.81,12,East,13.8,,,,,100,2012-12-24 09:00:00
3:00 AM,68.0,57.2,68,29.91,-9999.0,East,13.8,26.5,N/A,,Clear,100,2012-12-24 09:00:00
4:00 AM,68.0,57.2,68,29.93,-9999.0,East,12.7,-,N/A,,Clear,100,2012-12-24 10:00:00
5:00 AM,68.0,55.4,64,29.94,-9999.0,East,8.1,-,N/A,,Clear,100,2012-12-24 11:00:00
6:00 AM,68.0,59.0,73,29.95,6.2,East,11.5,23.0,N/A,,Partly Cloudy,100,2012-12-24 12:00:00
7:00 AM,69.8,59.0,68,29.98,6.2,NE,8.1,-,N/A,,Scattered Clouds,50,2012-12-24 13:00:00
8:00 AM,71.6,60.8,69,30.00,6.2,ESE,12.7,-,N/A,,Scattered Clouds,110,2012-12-24 14:00:00
9:00 AM,77,61,48,29.85,12,ESE,11.5,,,,Scattered Clouds,120,2012-12-24 15:00:00
9:00 AM,77.0,60.8,57,29.99,6.2,ESE,11.5,-,N/A,,Scattered Clouds,120,2012-12-24 15:00:00
10:00 AM,78.8,62.6,57,29.99,6.2,ESE,11.5,23.0,N/A,,Scattered Clouds,110,2012-12-24 16:00:00
11:00 AM,80.6,60.8,51,29.98,6.2,East,11.5,-,N/A,,Scattered Clouds,100,2012-12-24 17:00:00
12:00 PM,80,62,43,29.81,12,East,13.8,,,,Scattered Clouds,100,2012-12-24 18:00:00
12:00 PM,80.6,60.8,51,29.95,6.2,East,13.8,25.3,N/A,,Scattered Clouds,100,2012-12-24 18:00:00
1:00 PM,80.6,60.8,51,29.93,6.2,East,15.0,26.5,N/A,,Scattered Clouds,100,2012-12-24 19:00:00
2:00 PM,82.4,60.8,48,29.91,6.2,ESE,11.5,-,N/A,,Scattered Clouds,110,2012-12-24 20:00:00
3:00 PM,82,61,39,29.74,12,ESE,11.5,,,,Scattered Clouds,110,2012-12-24 21:00:00
3:00 PM,82.4,60.8,48,29.91,6.2,ESE,11.5,-,N/A,,Scattered Clouds,110,2012-12-24 21:00:00
4:00 PM,80.6,60.8,51,29.91,6.2,SE,6.9,-,N/A,,Partly Cloudy,130,2012-12-24 22:00:00
5:00 PM,75.2,62.6,65,29.93,6.2,SE,6.9,-,N/A,,Mostly Cloudy,130,2012-12-24 23:00:00
6:00 PM,72,62,64,29.80,12,East,8.1,,,,Overcast,100,2012-12-25 00:00:00
6:00 PM,73.4,62.6,69,29.96,6.2,East,8.1,-,N/A,,Mostly Cloudy,100,2012-12-25 00:00:00
7:00 PM,71.6,62.6,73,29.99,6.2,East,6.9,-,N/A,,Mostly Cloudy,100,2012-12-25 01:00:00
8:00 PM,71.6,62.6,73,30.01,6.2,East,5.8,-,N/A,,Scattered Clouds,100,2012-12-25 02:00:00
9:00 PM,72,62,64,29.83,12,ENE,11.5,,,,Scattered Clouds,70,2012-12-25 03:00:00
9:00 PM,71.6,62.6,73,30.01,6.2,ENE,11.5,-,N/A,,Scattered Clouds,70,2012-12-25 03:00:00
10:00 PM,69.8,62.6,78,30.00,6.2,East,9.2,-,N/A,,Mostly Cloudy,100,2012-12-25 04:00:00
11:00 PM,71.6,62.6,73,29.98,6.2,ESE,12.7,-,N/A,,Mostly Cloudy,120,2012-12-25 05:00:00